Theta_e
312 301 298 298 300 303 308 314 318 321 323 323 323 319 318 318 319 324 326 330 333 327 325 326 328 327 326 326 328 325 327 325 325 324 324 324 324 325 325 326 327 327 328 332 334 337 339 341 342 344 345 345 346 347 349 348 349 349 349 350 349 352 354 354 352 351 350 347 346 348 348 348 351 351 351 351 351 353 356 357 360 363 364 365 366 366
309 299 299 303 305 306 308 315 319 322 324 322 320 319 316 317 316 323 323 329 331 325 323 330 327 326 326 330 330 325 325 323 324 324 324 324 324 325 325 325 326 329 332 333 334 336 338 340 342 344 345 348 345 347 347 347 348 349 350 350 351 352 353 353 352 352 352 350 350 348 348 349 349 349 348 348 351 354 357 360 362 363 363 365 365 365
299 297 302 306 307 308 308 315 317 317 321 321 317 317 317 318 321 323 325 328 329 327 320 326 324 323 328 332 333 332 328 324 326 326 326 325 324 325 325 325 326 329 330 332 334 336 337 340 342 344 345 345 346 347 347 348 349 348 350 351 352 352 353 353 355 355 351 353 353 350 349 349 349 351 351 351 355 358 360 362 363 364 363 364 364 363
295 299 304 307 307 306 308 311 315 317 319 317 317 315 312 319 317 310 320 325 326 326 320 323 321 324 328 334 330 332 331 333 331 335 333 327 325 325 325 327 328 329 329 330 332 334 336 338 341 344 345 346 346 348 348 349 349 350 353 352 352 352 354 355 359 360 357 361 361 357 349 356 350 350 358 354 356 357 358 359 364 363 362 364 363 362
298 303 307 306 306 306 306 310 312 315 311 316 319 317 317 318 320 319 317 323 326 328 327 322 318 318 323 323 327 333 333 335 336 333 333 329 329 330 329 330 330 329 329 330 332 333 335 336 340 343 345 347 347 348 348 350 350 354 353 353 354 355 356 357 362 359 360 360 357 357 358 357 355 355 354 352 353 354 357 359 361 361 363 363 361 362
302 307 307 305 304 305 305 308 312 316 310 312 319 319 321 322 321 322 321 319 316 315 323 319 307 309 319 323 325 331 330 330 333 331 330 328 329 328 327 329 330 331 331 331 332 333 335 336 339 344 344 345 347 348 349 351 352 355 354 356 356 357 358 357 359 359 361 358 354 353 350 347 348 348 349 347 348 351 354 356 360 361 363 363 360 360
302 307 306 303 303 303 304 308 313 314 310 308 313 324 324 323 323 321 319 317 310 307 317 324 307 304 317 318 322 329 328 328 330 330 329 330 329 328 328 329 329 330 331 332 334 334 335 336 340 343 344 344 347 348 350 351 353 355 356 357 357 358 357 359 361 360 361 357 356 355 351 350 349 347 349 352 351 351 353 356 356 358 360 361 359 360
304 304 304 304 303 302 306 306 312 313 310 304 321 324 325 322 321 321 320 318 314 321 323 322 318 307 307 314 324 330 327 326 326 326 328 330 330 328 329 330 330 330 332 332 333 334 336 337 340 341 343 344 348 349 350 351 354 354 356 357 357 359 361 361 362 360 359 357 356 355 353 353 352 351 350 351 351 354 356 354 356 356 358 361 359 360
304 302 303 303 303 302 304 310 313 313 313 318 324 325 322 324 322 321 318 317 318 316 308 314 320 308 306 317 327 327 321 322 323 324 325 327 329 329 329 331 331 332 333 333 333 334 336 337 339 341 342 345 349 350 349 351 353 355 356 357 358 359 359 359 362 360 362 360 356 354 352 351 352 352 353 355 356 353 359 352 353 355 357 360 363 361
305 304 305 306 304 302 309 312 313 321 317 323 328 328 326 325 322 319 315 315 313 311 304 310 317 307 306 315 319 323 322 320 322 324 326 327 328 329 329 331 333 333 333 334 334 336 337 338 340 341 343 344 347 349 351 352 354 355 355 356 358 357 358 360 362 362 360 361 361 358 356 351 356 355 356 356 354 354 360 352 354 356 356 360 360 361
304 311 314 308 307 310 311 312 315 320 322 328 326 322 320 318 316 319 317 315 312 304 307 314 316 314 302 312 316 315 317 322 323 325 327 329 330 330 330 331 332 333 333 333 334 336 338 340 341 341 341 342 345 349 350 352 353 354 354 357 356 357 359 360 360 359 356 359 361 356 358 352 354 352 354 353 354 359 355 352 356 356 356 357 359 359
305 308 310 311 316 315 314 312 317 324 325 324 319 316 315 312 314 312 311 313 303 300 311 316 315 316 302 308 318 323 329 327 325 323 325 327 328 329 329 331 332 334 334 334 334 336 339 339 340 340 340 341 345 348 349 351 352 352 354 356 355 356 356 358 361 359 356 359 360 359 359 353 356 354 353 353 354 357 355 354 355 357 355 357 358 358
299 301 309 311 317 312 309 307 310 321 320 319 318 314 307 301 304 300 304 300 300 300 310 317 317 311 308 316 323 324 326 328 329 327 326 327 328 329 329 331 332 334 334 334 334 336 338 338 339 339 339 340 345 347 349 351 351 351 352 354 354 354 355 356 360 359 358 359 359 362 358 356 358 356 355 354 356 358 356 357 357 358 356 358 353 358
296 304 306 308 310 313 311 302 301 309 313 314 312 309 303 296 296 293 299 304 304 308 314 315 319 308 317 321 323 325 327 331 332 329 330 329 329 329 329 330 332 334 334 334 335 336 337 338 339 339 339 340 343 347 349 351 351 351 351 353 353 354 355 356 358 359 358 360 360 362 360 360 361 358 358 358 358 356 356 359 357 356 358 358 354 354
290 293 300 306 301 310 309 307 305 305 306 313 316 311 307 304 300 294 298 295 299 303 308 315 309 305 308 314 329 326 328 333 335 332 331 332 332 337 330 331 332 333 333 334 334 336 336 338 338 338 339 340 341 346 349 351 351 351 351 353 353 354 356 356 357 357 358 358 362 362 362 363 362 359 358 359 359 357 357 360 358 355 358 360 358 354
297 296 304 309 308 310 307 311 311 309 306 307 308 314 308 306 310 301 305 305 303 304 304 307 308 316 316 328 330 338 331 333 337 337 335 330 332 333 329 330 331 333 333 334 334 335 336 337 338 338 339 341 342 344 348 350 351 351 352 353 354 355 356 357 357 356 356 357 361 360 362 362 364 365 360 361 363 358 358 356 357 358 358 360 359 361
299 295 307 308 310 308 308 310 310 311 301 303 305 301 308 317 312 305 308 311 310 307 303 312 312 317 328 329 327 330 332 332 334 335 333 328 330 331 331 331 330 333 333 335 334 334 336 337 337 338 339 341 342 343 346 349 351 351 353 353 354 355 357 357 358 356 356 358 361 360 363 361 362 362 360 359 360 359 360 356 358 359 360 361 360 363
294 296 305 306 304 309 311 310 310 312 310 305 299 303 316 320 316 308 299 304 304 299 302 310 307 309 310 305 327 326 328 331 330 332 332 330 328 328 332 334 330 332 333 335 335 335 337 337 337 338 339 342 342 343 347 350 352 353 354 355 354 355 354 356 357 357 357 359 359 360 360 360 360 360 359 358 356 358 359 359 360 361 360 361 360 361
302 293 300 307 307 308 311 309 305 308 311 304 305 313 307 300 300 309 305 297 297 297 299 306 309 311 312 312 321 321 324 327 328 331 331 330 330 331 332 333 334 331 333 334 334 336 336 337 336 338 338 341 343 344 349 351 353 354 354 356 355 355 355 356 356 357 358 359 359 360 360 359 358 358 357 358 358 358 357 358 359 357 359 360 358 359
304 294 298 307 304 307 307 303 295 298 305 308 309 304 312 307 305 301 303 305 304 297 298 299 306 302 314 316 322 322 326 328 330 330 331 330 330 331 332 333 334 331 332 334 334 336 336 337 337 339 338 340 342 345 348 350 353 353 354 356 355 357 356 355 354 356 356 357 357 358 359 360 359 358 357 358 356 356 356 357 358 357 358 358 358 359
299 305 293 301 307 305 297 300 297 298 296 298 298 298 303 307 310 309 309 304 302 297 298 297 297 303 312 322 323 324 326 328 329 329 331 332 332 333 335 336 334 333 331 333 334 336 336 336 337 339 340 342 343 346 348 349 351 353 353 354 354 354 355 353 354 354 355 356 354 356 356 358 358 359 358 357 356 354 354 355 358 357 357 357 356 356
301 301 297 298 299 297 298 304 304 303 302 298 297 297 300 301 300 297 297 309 306 300 295 299 298 307 319 326 325 326 327 328 329 329 330 333 332 332 335 338 335 335 333 333 334 336 335 336 337 339 342 344 342 344 345 347 350 350 351 354 354 354 354 353 352 353 354 354 353 354 354 356 358 357 357 354 355 355 354 355 356 357 356 356 356 357
306 305 304 296 298 299 304 305 308 307 306 304 302 299 302 301 305 300 290 300 307 306 309 307 303 306 322 328 328 328 329 329 329 329 330 332 332 332 335 342 344 336 339 333 334 335 336 336 336 338 342 342 341 342 343 344 348 349 350 352 352 353 351 353 351 353 353 352 352 353 353 353 355 356 356 354 354 355 355 355 355 358 355 355 355 358
319 303 298 298 302 304 307 308 307 307 306 302 303 304 302 299 301 302 301 306 304 308 303 303 301 308 325 330 330 329 329 331 330 330 330 332 334 333 334 339 344 337 338 343 333 334 334 336 336 338 341 341 341 341 341 343 346 347 349 350 350 351 350 351 350 352 352 352 351 351 351 352 352 354 355 353 353 354 354 354 355 357 355 355 355 355
301 303 300 294 292 295 301 301 302 304 304 302 298 301 302 302 303 304 308 307 301 303 307 300 294 302 322 331 329 329 329 328 329 330 331 330 332 335 337 339 341 341 340 339 344 334 333 334 334 336 340 340 341 342 345 345 345 347 348 348 349 350 351 351 350 351 351 352 350 349 349 351 351 350 351 353 353 353 354 353 354 356 355 354 354 355
304 305 300 293 290 289 289 290 292 295 296 299 302 302 304 303 301 299 294 302 292 304 307 302 302 312 322 327 325 327 328 328 329 331 332 330 331 332 334 339 340 342 338 340 342 340 335 333 335 338 339 342 342 343 346 349 349 349 347 348 349 348 351 349 350 350 350 350 349 349 348 348 348 348 348 348 351 353 353 352 352 354 355 354 353 354
307 307 304 301 295 293 296 299 304 307 304 297 299 301 302 305 304 306 303 298 292 303 306 307 308 310 317 322 323 324 325 325 327 329 329 331 334 334 335 338 340 338 339 338 340 342 341 340 337 337 340 342 343 348 347 350 350 351 348 349 349 348 350 348 350 350 350 349 348 349 349 348 347 347 348 348 346 347 352 351 351 353 353 354 352 353
305 300 302 305 306 303 303 303 305 307 301 302 301 300 302 302 307 302 298 298 308 305 299 313 314 313 315 320 322 323 325 326 327 326 329 330 332 330 336 339 340 339 341 340 341 343 340 340 342 341 343 346 347 348 347 349 351 352 350 348 351 348 350 350 351 351 350 348 349 350 351 351 349 347 347 347 347 346 345 349 351 351 352 354 353 353
306 298 302 302 301 303 304 304 305 305 304 305 304 304 301 302 302 302 308 312 311 304 303 314 316 314 317 320 323 324 326 326 326 332 330 331 335 333 336 336 337 340 342 343 343 343 342 341 342 341 343 347 349 349 345 346 350 354 357 352 353 351 349 352 351 352 349 349 350 350 350 351 351 353 354 356 347 346 349 351 347 350 351 352 352 352
303 299 303 302 300 302 303 304 305 304 303 304 305 307 309 311 311 312 313 316 315 312 315 317 316 315 319 321 323 325 327 329 330 333 333 331 332 334 336 335 337 337 340 342 345 347 346 342 343 341 342 346 346 344 345 346 346 347 347 347 349 355 354 354 351 354 350 349 351 351 350 351 351 352 356 356 353 347 348 349 357 352 350 351 350 349
301 301 305 302 299 300 303 305 304 304 303 304 305 306 310 312 312 313 314 315 317 317 318 318 316 315 321 325 325 327 329 332 331 330 332 333 334 334 333 334 336 336 338 339 338 339 342 344 344 344 344 345 344 343 343 344 345 346 346 347 349 349 350 349 346 353 351 350 355 355 353 352 352 353 355 356 356 356 358 360 361 358 359 356 349 348
305 299 303 301 297 297 302 302 303 305 304 303 303 305 309 310 309 311 311 315 313 311 313 315 313 313 321 327 327 328 327 327 327 328 329 331 333 333 331 330 331 333 336 338 339 338 339 339 340 339 342 344 343 344 344 343 346 346 346 348 348 350 354 351 348 349 351 353 353 357 357 354 354 354 356 358 358 358 358 360 360 359 358 358 357 358
303 301 296 298 294 296 301 303 303 304 301 299 300 306 311 312 313 314 315 317 316 316 311 308 310 321 325 326 324 324 326 326 326 326 326 331 331 332 330 329 331 334 334 337 337 337 339 338 339 339 343 342 341 343 345 345 345 346 346 346 348 351 350 350 348 348 350 352 351 352 353 356 360 358 351 347 347 349 351 358 359 354 352 352 354 353
303 304 299 305 294 294 300 302 303 298 292 293 305 312 313 312 312 311 311 314 318 319 316 319 319 323 323 324 323 323 323 324 327 330 332 329 329 331 333 332 334 335 336 337 337 338 339 340 340 341 343 345 347 348 349 351 350 350 347 345 347 348 351 344 343 348 351 350 350 349 351 350 350 347 347 347 347 347 347 345 345 348 347 347 348 349
301 301 297 304 297 295 298 300 295 290 292 304 309 311 316 315 314 312 313 316 317 319 320 319 319 322 323 325 324 325 326 328 331 330 332 334 334 332 331 332 332 334 334 335 336 338 337 339 339 339 341 343 346 346 346 346 350 350 350 348 349 351 349 345 344 345 346 345 350 351 352 350 346 346 348 347 347 346 347 346 346 347 348 348 347 347
301 299 299 300 301 300 296 295 287 289 305 309 309 310 312 314 313 311 308 312 317 318 320 319 321 323 324 324 325 328 328 329 329 331 333 334 334 332 333 332 333 333 332 333 333 334 336 336 337 338 340 344 343 343 343 343 346 347 346 347 348 347 347 346 345 344 344 344 347 350 351 351 347 348 347 347 347 347 347 347 348 348 347 347 347 346
304 301 301 296 304 294 297 295 296 304 305 307 306 306 307 305 308 306 300 305 314 318 320 320 321 323 323 323 324 326 328 327 324 324 331 331 331 332 333 333 333 333 334 334 335 335 336 336 336 338 338 338 338 339 341 344 344 344 343 341 342 343 343 343 342 344 347 347 348 351 352 351 349 347 346 347 349 350 351 350 349 347 348 345 346 348
304 300 305 296 297 300 295 295 294 294 292 299 307 310 313 313 314 313 308 303 313 318 322 321 321 322 322 322 322 324 326 319 317 319 327 331 332 331 333 333 334 334 335 335 336 337 337 337 337 336 334 333 333 334 335 336 337 336 335 337 339 339 339 339 340 343 344 344 346 348 349 349 347 345 345 346 349 349 348 349 349 349 351 347 346 346
306 303 306 301 298 297 297 292 292 292 297 305 306 310 313 314 312 319 308 300 310 318 322 323 322 322 321 320 321 324 318 312 312 319 328 332 333 334 332 333 334 335 335 336 335 334 334 334 334 333 333 332 332 333 334 333 334 333 333 334 334 334 334 334 336 339 341 343 345 346 347 347 347 345 345 344 344 346 346 345 344 346 345 345 345 346
304 301 303 299 298 298 297 293 293 300 298 306 310 312 315 315 310 305 294 296 310 318 322 323 322 321 321 323 324 321 318 311 314 320 330 333 333 332 330 329 330 331 333 334 335 334 333 333 331 329 330 329 329 332 333 334 333 332 330 330 331 331 332 334 335 338 339 340 341 342 343 345 346 345 343 343 343 344 344 345 344 344 345 345 346 345
300 301 300 296 295 296 298 295 298 301 309 311 312 315 316 318 309 297 289 301 315 319 322 324 323 324 323 322 322 318 321 322 323 327 331 327 327 328 328 327 327 331 332 333 333 334 332 330 328 327 327 327 329 329 329 329 328 327 328 327 327 328 330 333 336 337 337 337 338 339 339 340 342 344 343 343 343 345 346 345 343 343 344 344 345 345
299 300 299 300 296 295 296 297 296 300 308 312 314 316 317 312 297 294 306 317 319 318 323 324 324 325 325 323 322 322 324 328 330 330 327 327 327 326 324 323 323 324 326 328 328 327 325 326 325 325 327 328 329 329 328 327 326 325 325 325 325 327 330 332 334 336 337 337 336 336 337 338 339 341 341 342 341 339 341 345 345 346 345 345 344 343
299 297 295 295 299 300 299 295 290 286 304 314 316 314 316 305 304 314 317 318 320 320 322 323 324 325 325 323 324 324 324 323 324 325 325 326 326 325 324 323 321 319 319 319 320 324 324 323 323 325 326 327 328 328 328 327 325 324 324 323 325 329 331 332 330 332 334 331 330 331 334 337 335 335 337 338 340 339 337 338 340 341 341 340 341 341
305 298 296 298 303 295 295 293 292 304 309 315 314 306 313 315 318 320 318 314 319 319 321 322 324 326 326 324 323 323 323 322 323 324 323 323 324 323 323 322 321 320 319 320 321 322 325 322 323 324 325 324 325 327 328 329 328 328 325 324 327 327 329 330 332 332 334 333 328 326 327 329 336 333 331 335 336 335 335 336 337 338 339 340 341 339
304 303 304 296 306 301 298 301 307 311 312 314 316 315 317 321 322 321 319 317 317 318 323 323 323 324 326 326 325 324 322 323 324 324 321 320 321 321 321 321 320 318 317 318 320 324 322 321 321 323 324 326 327 327 328 328 327 327 326 329 332 331 329 329 330 330 329 332 331 330 331 329 329 333 328 331 331 328 333 334 335 333 336 337 334 334
311 311 311 307 304 309 310 310 313 312 313 313 316 317 317 318 319 320 319 317 319 322 323 323 325 327 326 327 324 324 324 324 323 323 322 321 320 321 323 322 317 317 316 318 321 324 321 321 321 321 322 323 325 326 328 327 326 324 323 327 331 330 330 330 325 323 327 331 330 332 336 337 336 336 328 332 339 337 333 335 336 334 332 333 332 331
309 310 310 303 307 299 294 309 310 311 313 314 315 316 317 318 317 319 318 319 320 321 323 326 325 324 325 326 326 323 324 327 326 325 324 321 320 320 321 322 317 317 317 319 325 324 321 321 320 320 320 319 321 322 325 325 326 325 325 325 326 326 328 330 330 330 327 325 326 326 328 328 335 333 334 334 335 336 335 330 327 328 328 327 326 327
302 311 306 308 307 302 303 309 310 312 313 315 316 315 315 316 317 318 318 319 320 322 325 326 327 326 326 324 325 325 324 325 324 322 325 326 323 323 323 319 319 321 324 324 323 324 324 324 323 323 323 322 322 322 322 323 323 326 325 323 323 325 326 327 326 321 321 322 327 329 330 327 333 326 322 323 323 324 323 322 322 320 321 322 322 321
309 312 301 307 303 306 310 311 312 313 313 314 316 317 318 318 317 317 317 318 318 318 321 326 327 326 326 325 326 325 323 323 323 322 323 325 325 324 324 324 324 324 322 321 322 324 322 322 321 321 322 322 323 323 325 325 325 325 323 325 327 327 325 325 323 325 323 326 325 323 326 327 327 323 319 318 317 315 315 319 320 318 317 319 320 322
309 302 306 306 301 301 301 306 310 304 304 310 314 317 318 320 319 318 317 317 317 316 318 320 325 327 327 326 325 325 324 323 322 323 323 322 323 324 324 323 323 322 323 324 324 324 324 324 321 321 321 321 322 322 322 323 325 326 327 326 326 325 324 325 326 326 323 326 326 328 329 330 328 329 325 319 317 316 316 312 302 309 317 316 315 309
307 310 308 303 301 301 309 314 315 313 312 314 316 318 319 319 318 317 316 317 317 318 318 317 317 320 322 325 327 326 324 324 324 324 323 321 323 325 324 323 323 322 322 322 322 321 321 322 324 322 321 320 323 323 324 324 325 325 327 328 327 326 324 324 328 325 326 328 326 327 331 329 327 327 323 321 319 318 318 315 313 298 298 308 308 302
Wind_Speed
3 5 4 7 7 7 10 11 6 8 6 8 3 7 6 5 4 2 4 5 4 4 4 5 2 4 6 7 6 8 8 6 9 7 11 11 11 9 9 11 10 7 10 10 11 11 12 14 12 12 11 11 12 9 9 9 7 10 11 10 9 7 6 6 6 5 4 4 5 3 3 4 2 4 5 5 6 6 6 6 4 4 4 3 2 1
7 5 7 8 10 13 13 10 10 11 7 10 5 6 5 6 4 4 7 8 4 2 3 2 4 4 5 2 5 4 9 8 11 7 10 12 12 9 11 12 10 6 9 11 10 13 12 12 13 12 9 12 13 10 11 9 8 8 10 10 9 7 6 5 6 6 4 4 3 4 5 3 4 4 5 4 5 6 7 6 4 4 4 3 3 1
6 7 7 10 11 12 14 9 10 11 11 7 5 6 7 5 5 5 4 10 5 2 3 2 5 5 6 4 2 7 3 6 5 10 7 12 12 7 12 13 8 8 11 9 12 13 12 14 14 10 11 11 11 12 12 10 9 8 7 8 8 7 6 6 6 5 5 4 4 4 4 6 3 3 3 3 3 5 6 6 5 4 4 3 4 3
5 6 10 10 10 11 13 11 7 10 10 6 6 6 6 9 7 2 2 6 3 1 7 3 2 3 4 1 2 2 4 2 4 5 3 9 11 7 13 11 10 9 13 10 13 13 13 13 12 12 11 11 11 10 11 10 10 8 6 7 8 8 6 6 5 4 4 4 4 4 5 3 6 4 4 3 3 5 6 6 4 4 4 4 4 4
8 9 14 11 10 11 13 10 6 8 7 8 10 5 8 11 4 6 6 6 3 4 5 7 1 2 2 1 1 1 2 2 3 3 2 6 8 7 11 9 11 10 12 10 12 13 13 12 13 13 11 11 10 10 11 10 10 8 9 8 8 7 6 5 4 5 5 5 4 5 5 5 6 5 4 4 3 6 5 5 4 5 5 4 4 5
10 8 11 13 10 10 10 7 10 12 7 7 12 12 14 11 10 13 13 10 4 3 4 9 4 6 2 2 2 2 3 2 2 1 1 5 6 8 11 11 9 12 9 10 11 12 13 12 13 13 12 11 10 10 10 10 9 9 9 8 7 5 6 6 5 6 5 5 6 6 7 6 5 6 5 6 7 6 6 6 4 4 5 5 4 4
7 7 7 12 10 9 11 7 7 10 7 9 8 14 15 13 13 16 12 8 6 7 8 1 6 3 1 4 5 1 1 0 2 1 2 3 3 7 8 11 9 13 9 9 9 11 14 12 14 15 13 12 12 10 9 9 10 10 9 8 8 6 6 6 6 6 5 5 5 6 6 6 7 7 4 4 4 6 6 6 6 6 5 4 5 4
6 9 5 9 11 10 5 5 6 7 11 1 17 17 16 14 13 14 12 2 3 6 6 3 2 3 3 6 4 2 1 2 3 4 3 2 4 5 7 11 9 13 9 10 10 10 13 13 14 16 14 13 12 12 11 10 10 10 10 9 8 6 6 5 6 6 6 6 4 5 5 6 6 7 6 6 5 5 5 7 7 6 5 5 4 5
9 7 10 7 9 5 6 5 8 3 7 2 10 15 14 14 12 11 6 4 2 5 6 5 2 2 3 1 4 5 4 5 6 6 6 4 4 5 9 10 10 14 11 10 10 10 13 13 13 13 12 14 15 13 11 11 11 10 9 9 7 7 7 6 5 6 6 6 6 5 5 5 5 5 6 6 5 6 4 8 6 6 5 4 4 5
5 8 9 10 5 7 6 8 2 17 11 9 16 14 13 13 11 8 6 6 1 2 5 10 8 3 1 3 5 2 5 9 8 9 7 7 6 7 10 7 7 11 11 10 12 10 12 12 11 12 11 14 15 13 11 11 11 10 9 9 8 8 8 7 6 6 5 5 5 4 5 7 5 5 4 5 5 4 4 6 6 5 6 4 4 4
2 8 11 8 4 3 6 3 8 17 13 14 19 17 13 10 8 5 5 4 3 1 5 10 11 4 3 7 8 10 7 8 7 4 5 5 8 9 8 12 9 10 11 9 12 11 11 13 12 13 11 13 13 13 12 12 11 11 10 9 9 8 8 8 7 7 6 4 4 5 3 6 5 7 6 6 5 4 5 6 5 5 5 4 3 4
12 3 4 3 2 2 3 3 10 22 18 16 7 14 12 6 4 4 3 3 0 3 1 7 12 8 3 3 7 6 4 9 10 11 11 10 8 10 9 11 10 12 11 10 12 12 12 12 11 13 10 12 15 15 13 12 11 11 10 10 9 7 8 7 7 8 7 5 5 4 4 5 5 6 6 7 6 4 5 6 5 5 5 4 4 3
6 5 2 8 4 3 3 2 10 15 9 6 13 10 10 2 2 3 1 2 3 2 3 1 6 1 7 1 2 8 9 10 11 9 12 12 10 10 10 11 8 12 11 10 11 11 12 12 10 13 10 9 15 14 14 14 12 11 10 11 10 9 8 7 7 8 7 6 6 5 5 5 5 7 7 6 6 5 6 5 5 5 6 4 6 4
2 4 3 4 4 4 2 0 4 10 7 6 10 6 8 3 1 2 2 1 1 3 4 2 8 4 2 4 9 9 12 9 11 10 8 11 11 11 10 11 10 11 9 9 10 12 13 13 9 11 8 11 13 15 14 14 12 10 10 11 10 10 9 7 7 7 7 6 6 5 6 5 5 7 7 6 6 5 5 5 6 6 5 5 6 5
3 3 4 11 2 4 3 5 3 4 10 12 10 9 7 5 5 3 1 2 3 1 3 2 5 4 3 2 2 11 11 10 7 7 3 4 5 2 4 8 10 11 9 6 9 10 13 13 13 11 8 12 12 16 15 13 12 11 11 11 11 10 9 8 8 6 6 6 6 5 5 5 5 6 6 6 6 6 5 5 5 5 5 5 5 6
10 4 4 8 5 9 9 7 4 6 10 6 7 8 8 6 5 6 6 7 6 2 3 2 2 1 2 0 3 3 7 8 7 4 5 9 6 6 8 7 10 12 13 8 10 10 12 12 13 11 9 11 11 14 14 14 13 12 11 11 11 12 11 9 8 7 7 6 5 5 5 5 5 5 5 5 5 5 6 5 5 6 5 5 5 4
2 4 10 12 8 9 8 4 6 5 2 5 1 5 6 10 8 6 2 2 6 2 1 0 2 1 0 2 2 1 7 9 8 4 6 7 6 8 11 7 8 11 14 9 12 11 11 11 11 10 10 11 11 11 13 14 13 13 12 12 11 10 9 10 9 9 7 6 5 7 6 6 5 6 6 7 6 7 5 6 5 5 5 5 5 4
3 7 9 9 11 10 6 4 3 6 3 1 2 4 8 9 10 6 4 3 2 3 2 2 4 2 2 2 3 5 7 10 10 9 9 10 11 10 10 6 7 11 12 9 11 11 12 11 11 10 11 12 12 11 12 14 13 13 13 12 12 11 11 10 10 9 8 7 7 7 7 6 6 6 6 6 6 6 5 5 5 4 5 4 5 4
5 3 8 10 10 10 6 3 5 5 4 5 0 3 7 1 5 1 4 5 4 1 1 3 3 3 5 3 6 9 11 11 12 11 10 11 11 12 11 6 5 8 12 9 11 11 11 12 12 10 12 11 12 10 13 14 13 13 12 12 13 12 12 11 9 8 7 7 7 7 7 7 7 6 5 6 5 5 5 5 5 5 5 4 5 5
2 2 5 7 3 12 5 4 3 3 3 4 1 4 9 4 6 5 3 3 7 3 1 1 1 4 5 4 12 12 13 12 10 11 13 14 17 15 11 6 4 4 10 10 11 10 12 11 12 11 14 12 13 10 14 14 11 14 13 12 12 10 9 10 10 9 9 8 7 8 6 5 6 6 4 7 6 6 5 6 6 5 6 5 5 5
3 1 2 1 2 4 5 5 5 7 4 3 2 3 1 2 5 5 2 2 4 6 3 2 1 5 4 4 7 10 13 13 14 13 11 12 13 13 9 5 3 5 7 9 11 9 12 12 11 12 12 12 12 10 13 13 12 13 12 12 13 12 12 12 10 10 9 8 6 7 8 6 7 4 5 6 6 6 5 5 5 6 6 5 5 5
3 1 3 4 1 3 2 10 6 5 8 3 4 4 4 1 2 3 1 4 3 5 4 4 2 1 2 5 6 6 11 11 12 12 11 10 12 12 8 7 5 6 8 9 11 10 11 11 12 10 11 11 12 11 13 13 12 13 11 11 12 11 10 11 9 10 8 9 7 9 9 8 7 6 5 5 5 4 6 5 4 5 5 5 5 6
2 2 1 4 4 5 6 13 7 7 5 7 8 5 6 3 5 2 1 1 1 1 8 2 4 0 1 1 2 4 9 11 12 12 11 10 12 11 9 5 4 9 5 6 12 11 11 11 12 10 12 12 14 11 12 10 12 12 12 12 10 11 9 10 8 10 8 9 7 8 9 8 7 7 7 6 6 5 5 4 5 4 5 5 4 4
9 1 6 5 6 8 9 6 6 6 6 4 10 9 9 9 4 5 4 3 4 4 2 1 3 2 0 2 1 4 6 10 10 10 10 9 8 12 13 8 3 6 3 4 7 10 10 10 12 8 11 11 11 9 11 9 12 11 11 12 10 12 10 10 7 10 7 8 8 7 9 7 8 8 8 8 6 7 6 6 7 7 5 5 4 5
3 3 3 4 4 7 10 2 5 3 2 1 2 7 7 7 9 3 5 3 4 7 9 6 4 4 1 1 2 2 5 10 12 9 11 10 9 9 9 9 2 1 2 1 1 8 9 11 13 9 11 11 10 9 7 9 11 10 12 11 11 12 10 10 7 10 9 7 8 7 8 7 8 8 8 8 7 7 7 4 6 7 7 6 5 5
1 2 3 3 4 4 3 5 5 6 6 4 4 4 3 6 5 6 6 2 3 3 10 6 3 0 1 3 4 1 5 5 5 8 7 9 10 9 8 7 3 1 1 0 0 4 5 9 9 8 9 8 10 9 7 8 8 9 12 10 11 11 9 10 7 10 9 7 8 7 7 7 6 8 8 7 8 10 8 5 5 6 6 6 7 4
2 1 1 1 1 5 5 6 8 7 2 8 4 8 4 3 2 1 3 5 5 2 5 3 10 5 3 6 5 5 5 5 4 2 3 7 4 2 8 8 5 3 3 3 3 5 3 3 8 10 9 9 8 8 7 7 8 8 10 9 10 9 9 10 7 10 9 8 8 6 6 8 8 6 8 8 5 6 8 7 6 6 6 4 6 5
1 1 3 3 4 7 7 8 10 9 5 1 5 4 6 8 1 4 5 2 11 10 4 0 11 11 9 7 6 7 5 4 4 6 9 10 5 5 1 4 6 4 0 2 0 3 3 2 9 10 9 9 8 8 8 6 8 8 9 8 8 9 8 8 7 9 9 8 7 7 6 7 7 6 5 7 6 5 5 8 8 7 7 6 5 6
2 2 5 6 8 10 11 10 6 7 6 1 6 9 4 7 5 10 12 11 3 7 9 10 10 11 8 7 7 5 6 5 8 7 10 12 10 6 5 10 7 3 2 3 3 3 3 3 6 11 11 10 7 7 8 7 5 5 3 4 4 7 6 7 6 9 8 8 8 7 6 5 4 4 3 3 7 7 3 3 6 9 8 7 7 6
3 2 3 4 8 9 11 13 7 6 4 8 14 13 15 23 19 16 19 18 12 3 12 12 5 5 2 3 5 5 6 7 6 7 6 7 7 8 8 9 9 10 4 2 2 3 4 3 5 7 9 8 9 9 9 7 7 5 6 6 7 7 9 6 2 7 7 7 7 7 6 6 4 4 2 2 4 6 4 3 4 2 7 8 8 6
2 2 8 4 4 6 11 10 6 7 5 13 16 11 15 19 24 21 19 16 16 17 12 11 12 10 8 5 6 7 8 9 7 6 7 5 7 8 7 5 5 5 2 4 6 10 5 6 5 6 8 8 8 6 3 5 7 7 5 5 5 6 3 6 9 8 7 5 3 5 6 6 6 5 3 3 3 4 5 4 3 5 4 1 4 7
3 4 7 3 3 5 8 7 11 13 8 18 18 16 14 18 16 15 14 11 12 10 10 13 12 7 8 8 10 12 15 13 7 4 5 5 7 7 6 5 7 8 6 2 3 4 9 12 12 11 10 9 7 5 4 3 3 4 7 7 6 7 8 7 8 2 3 6 4 4 4 5 7 5 3 4 3 4 3 4 4 5 5 7 6 4
2 2 3 3 6 3 11 11 16 15 10 16 15 15 14 17 15 17 16 14 12 8 10 8 2 2 3 6 9 12 11 9 7 4 3 2 4 6 5 4 4 5 4 1 4 6 6 7 5 6 6 4 3 2 3 4 5 3 4 6 7 6 5 6 4 4 3 2 3 4 4 4 5 6 7 6 5 5 7 8 9 8 6 6 3 5
3 2 2 0 0 3 9 8 8 12 13 5 10 15 11 16 17 17 14 14 12 10 6 6 6 6 8 11 13 12 13 7 3 3 3 3 4 4 2 4 3 2 3 6 6 3 4 6 4 4 5 3 5 7 7 3 2 3 3 2 3 5 8 9 9 5 3 3 3 3 3 3 6 7 5 5 5 5 5 7 5 3 2 3 5 6
5 5 4 2 1 3 7 6 5 11 6 7 10 10 13 19 20 19 16 14 14 12 12 10 7 9 10 11 14 14 12 11 9 9 10 10 4 5 5 6 7 7 7 8 8 7 9 8 5 6 6 6 5 5 6 7 4 0 4 6 5 5 8 9 8 4 3 2 2 5 4 4 4 5 5 5 4 4 2 4 7 6 2 4 3 2
2 3 3 3 1 0 1 1 3 1 1 7 9 10 8 7 12 15 16 16 14 12 10 10 9 9 9 10 10 12 14 13 12 14 11 9 11 8 8 8 7 7 8 8 10 10 10 9 9 6 5 3 5 7 7 4 5 2 1 2 4 6 5 3 2 3 4 2 2 2 3 5 5 5 6 6 7 6 6 5 5 4 5 5 2 1
4 4 1 3 0 1 1 3 9 5 3 13 8 9 9 6 7 10 9 9 10 10 10 7 9 9 8 7 7 9 11 12 11 10 13 13 15 13 10 10 9 8 8 8 8 9 9 9 11 7 5 6 8 8 6 2 2 5 7 8 7 8 9 8 8 7 5 3 3 2 0 1 3 3 3 4 5 7 7 6 4 3 3 4 3 2
4 2 0 2 2 1 1 3 2 3 2 2 4 8 7 8 4 11 8 6 9 9 10 7 6 5 5 4 4 2 4 13 8 5 4 5 9 10 9 9 8 6 6 5 5 7 8 9 9 8 8 9 9 9 8 9 9 10 11 10 8 8 6 6 6 4 4 6 6 6 6 5 4 4 3 2 4 6 6 5 5 5 4 4 3 3
1 5 3 1 2 3 0 2 2 2 1 1 9 9 10 8 8 2 7 5 6 7 8 7 5 4 4 3 3 1 5 6 3 3 2 2 5 7 9 8 7 8 7 6 8 9 9 8 9 10 10 10 11 9 9 9 9 10 9 9 9 8 7 7 6 5 6 6 6 7 6 4 5 5 4 4 5 4 7 6 6 4 3 5 5 5
4 4 2 2 3 2 0 3 3 1 2 6 9 7 8 9 5 3 2 3 5 5 6 6 6 3 3 5 6 9 6 7 5 4 2 5 7 7 10 11 10 10 9 9 9 8 7 7 9 10 9 10 9 8 8 8 10 10 9 8 9 10 9 7 5 5 7 7 8 8 7 7 6 5 5 4 5 4 3 4 4 5 5 4 5 6
3 3 1 3 3 4 2 3 2 2 1 9 8 9 9 5 2 7 2 1 4 5 6 6 7 6 5 6 5 7 4 4 6 4 2 5 7 8 8 8 8 9 11 10 9 7 7 6 7 7 9 7 7 8 8 8 10 10 9 9 10 10 7 6 5 7 8 7 8 8 7 8 6 5 6 5 4 4 4 4 5 3 2 3 4 5
3 1 3 5 5 5 3 7 3 2 1 8 4 11 10 2 4 3 1 2 2 5 6 6 6 8 7 7 7 7 6 5 5 4 5 4 6 7 9 11 12 12 11 10 10 8 8 7 7 7 7 6 8 8 7 8 10 10 9 10 10 7 6 6 5 5 8 9 8 8 8 7 8 8 7 7 6 5 3 4 4 3 4 3 5 6
2 2 3 3 3 4 5 5 3 1 5 12 6 4 13 5 2 2 0 3 4 3 5 6 5 4 6 7 7 7 7 7 6 5 4 6 8 7 6 8 8 8 8 8 9 8 8 6 7 8 8 7 6 5 5 7 9 9 9 10 7 5 5 6 7 6 8 10 10 9 8 8 9 8 7 8 7 5 5 5 4 4 4 6 5 5
3 1 1 2 2 2 2 2 2 1 2 8 8 6 2 4 2 2 2 4 4 5 4 5 5 5 5 6 6 5 5 6 5 5 5 5 5 5 5 6 6 6 6 7 7 7 9 9 8 8 6 6 5 5 4 5 7 7 8 8 5 5 4 4 4 5 6 7 7 8 8 8 6 6 7 7 8 7 6 5 5 4 2 2 4 3
5 3 1 4 3 2 3 4 4 5 5 6 7 8 5 3 3 3 4 4 4 4 4 5 5 5 4 5 5 3 3 3 4 3 4 3 4 3 4 4 4 5 6 6 6 5 6 8 8 7 6 4 4 3 4 4 7 7 6 3 3 4 5 5 5 4 5 4 4 4 3 6 4 3 6 3 7 8 5 4 3 4 4 4 7 6
4 9 7 8 8 9 9 6 5 5 7 9 9 6 6 5 4 4 5 5 4 5 5 7 5 4 3 3 3 5 4 4 5 4 3 3 3 1 1 2 4 4 4 4 4 5 6 6 6 6 6 5 4 5 4 4 4 6 4 4 4 3 3 5 7 7 5 3 3 2 3 2 2 2 7 4 2 3 3 3 5 6 6 5 6 6
2 0 3 6 6 3 4 4 5 5 7 10 9 8 7 6 6 5 5 3 4 4 5 8 9 5 4 3 1 6 4 3 4 3 3 3 3 3 2 2 5 4 4 4 3 6 6 5 6 5 5 5 3 3 3 3 3 3 3 4 3 5 6 4 4 4 0 4 5 3 3 3 1 3 2 2 2 2 5 5 5 6 6 6 6 8
3 4 6 3 3 4 4 5 8 8 9 8 6 6 7 7 7 7 6 6 4 5 5 6 7 7 4 4 5 6 4 3 4 2 1 0 3 4 4 6 5 2 3 5 6 6 6 6 6 5 5 4 3 3 3 3 3 2 2 3 3 3 3 4 4 4 3 2 3 2 3 6 12 9 5 6 6 6 7 5 5 7 7 6 5 6
1 0 3 3 5 5 5 5 7 9 8 7 7 6 5 6 6 7 7 8 8 6 6 6 6 6 6 6 4 5 5 4 3 3 3 4 4 6 6 5 5 4 5 7 6 6 7 5 5 5 5 4 2 2 1 3 4 5 5 3 3 3 3 3 3 2 2 3 4 3 3 6 7 7 7 7 8 7 6 5 5 7 5 4 3 4
2 4 4 6 6 3 2 6 8 6 4 4 5 6 5 5 6 5 5 7 7 8 6 5 6 5 7 6 5 5 5 3 2 2 3 3 3 4 5 6 5 6 6 5 6 7 6 5 5 4 4 4 4 4 3 2 3 3 3 3 3 3 2 1 2 3 4 5 5 4 4 5 5 7 7 7 7 7 8 10 11 8 4 3 5 8
4 2 1 3 6 4 1 4 5 8 6 4 5 5 7 5 4 5 4 4 4 5 6 7 5 5 5 4 4 6 4 3 3 2 2 1 2 3 3 4 4 4 5 5 6 6 5 4 4 4 3 3 3 3 3 3 3 3 3 3 3 3 3 2 1 3 4 4 4 4 4 4 6 7 6 6 6 7 8 5 7 12 13 9 6 6
Wind_Direction
136 181 180 198 225 226 217 221 212 122 147 86 89 122 148 113 93 81 88 147 185 133 163 165 177 201 210 212 260 165 169 150 177 163 153 150 153 172 150 149 175 160 154 148 148 135 131 133 134 131 139 135 134 139 136 132 124 131 133 138 142 145 144 141 137 142 147 141 152 144 143 145 130 105 109 123 134 126 134 140 146 144 144 155 112 105
211 188 213 208 211 232 235 203 179 129 110 139 156 123 108 112 150 183 152 172 199 190 140 151 172 203 214 307 336 171 170 178 178 163 159 152 157 173 148 152 179 161 141 147 139 139 135 135 133 134 132 130 134 139 141 139 135 134 137 136 140 141 150 149 151 157 151 159 166 153 159 152 135 121 116 123 130 135 139 142 151 145 151 155 140 162
199 209 212 216 215 226 245 228 193 158 137 146 131 130 112 96 98 39 133 158 191 117 180 156 185 171 224 8 342 25 196 187 173 175 167 153 163 164 149 160 172 152 147 159 142 141 140 140 137 129 131 138 137 140 144 144 139 143 139 137 140 148 155 165 169 158 156 166 162 153 158 153 137 143 151 139 148 123 131 141 151 151 153 152 142 174
194 222 225 222 219 223 235 243 148 136 134 146 141 143 161 158 147 149 231 149 183 231 173 171 187 161 316 110 340 3 76 5 323 7 229 154 167 166 156 162 160 151 156 164 149 147 148 146 133 135 140 144 148 143 144 150 150 149 143 143 147 154 161 167 169 152 140 112 114 136 146 131 132 150 144 143 128 119 127 148 151 145 153 166 159 181
197 202 200 224 230 222 230 211 167 136 160 175 161 150 131 167 187 144 165 153 143 47 92 113 60 333 241 304 310 344 12 62 3 31 323 174 173 159 156 153 160 156 163 160 152 150 148 145 138 144 144 145 145 143 150 155 154 151 150 149 151 154 155 159 159 140 126 114 99 93 88 95 104 99 117 137 138 142 148 145 147 158 167 176 181 190
242 228 180 199 221 235 239 223 174 147 178 170 181 167 160 160 117 104 127 140 134 113 192 153 132 211 215 266 260 298 355 40 28 37 339 212 175 158 160 157 158 153 167 160 158 153 148 146 137 142 147 149 146 148 156 158 149 145 149 149 148 151 151 159 153 147 134 136 135 123 123 130 129 137 151 165 166 161 155 162 161 164 184 187 186 189
242 235 201 182 208 221 234 227 192 175 154 187 178 148 149 141 124 132 144 142 157 170 187 178 175 196 3 208 235 126 359 343 264 170 278 320 209 161 165 156 161 159 162 161 158 151 148 146 140 147 152 157 156 156 157 152 145 150 150 151 154 156 160 156 149 151 142 133 141 143 145 146 147 150 175 177 170 156 162 160 164 175 190 191 173 176
232 262 246 187 190 214 192 217 246 203 157 248 141 143 131 128 137 144 147 139 85 67 115 147 118 135 204 227 216 146 126 245 260 226 244 272 287 187 174 165 166 163 163 162 162 155 150 149 148 155 158 159 154 155 158 153 150 155 158 154 158 157 152 148 146 150 155 149 155 152 149 150 152 160 171 172 179 177 167 158 161 173 179 190 177 157
203 226 262 216 193 179 190 216 206 264 90 85 88 118 124 131 127 115 85 54 117 129 159 201 164 72 232 224 138 146 186 227 235 220 223 229 238 231 178 176 171 163 163 166 165 159 153 152 154 157 159 156 154 160 162 154 155 156 159 156 157 150 149 153 158 154 156 160 166 169 158 161 171 169 164 166 172 172 142 152 155 166 171 189 159 155
192 233 219 246 173 169 196 211 157 98 104 121 113 100 92 86 79 81 89 97 1 95 200 193 189 175 138 180 164 175 205 218 214 213 212 214 220 227 183 183 175 162 164 166 165 159 154 155 156 162 157 160 157 161 157 150 153 157 158 160 158 154 155 161 162 147 150 159 160 166 161 168 164 147 125 137 153 157 135 147 151 151 161 174 144 153
309 200 248 205 149 205 209 161 95 115 112 125 107 99 88 79 83 70 62 63 89 262 228 184 187 209 178 193 189 176 214 198 191 208 215 218 224 219 189 177 186 168 168 164 165 160 157 157 159 166 170 163 150 152 152 152 157 157 162 161 161 160 158 161 158 150 163 159 150 171 152 157 149 145 132 127 136 123 136 143 147 148 161 167 170 153
254 206 192 156 276 297 177 160 120 131 141 136 124 118 108 69 80 64 36 33 164 248 295 171 187 204 192 216 192 203 154 196 185 195 204 205 215 207 194 185 177 171 173 166 163 161 153 159 163 168 177 163 145 152 154 154 158 160 163 161 163 162 164 168 157 156 167 168 170 164 162 162 154 149 147 149 150 154 148 147 147 155 159 175 179 166
254 249 160 163 121 306 327 76 137 135 144 113 130 127 106 145 140 51 37 94 231 266 327 228 159 195 258 219 223 204 200 186 192 195 200 197 203 210 199 184 182 168 175 169 162 158 156 163 172 171 174 155 144 154 154 157 159 162 163 163 162 169 169 172 164 162 172 173 176 165 173 170 152 145 151 155 155 163 158 151 151 155 172 171 184 184
301 279 196 85 132 192 209 237 149 144 131 204 146 143 97 119 175 123 146 200 255 84 4 102 150 222 316 258 202 209 213 195 185 196 203 194 196 208 202 189 173 168 176 170 159 162 157 166 174 175 168 155 148 155 156 158 158 161 166 165 167 170 168 175 171 171 171 175 173 165 166 166 147 148 155 160 158 166 164 149 162 170 178 172 185 186
244 252 256 125 213 137 226 208 217 305 169 179 167 164 153 145 146 140 150 138 236 153 119 78 145 217 145 265 245 225 207 187 189 199 199 226 204 283 243 186 161 170 173 177 162 164 162 167 169 180 167 161 158 157 156 159 156 161 163 166 168 168 171 175 176 175 167 170 167 165 155 153 145 151 156 159 160 164 165 158 163 176 186 177 183 187
202 217 170 181 169 166 197 218 214 242 266 209 156 94 124 163 141 132 175 164 192 157 106 200 229 211 203 247 308 306 171 172 174 212 76 52 3 283 271 251 177 172 174 177 171 163 166 162 167 174 165 162 163 156 155 157 158 162 166 167 169 172 172 175 173 179 169 177 168 158 158 162 153 152 159 163 161 168 167 170 168 180 186 189 184 195
306 224 171 184 159 169 209 192 184 214 275 304 87 169 183 159 121 101 86 87 133 102 165 340 296 336 316 282 304 316 148 167 183 173 112 140 221 248 244 242 200 177 173 171 170 164 165 163 167 162 161 157 160 158 154 157 162 162 162 168 167 174 173 175 174 174 170 178 162 169 167 166 164 165 158 170 164 172 173 174 179 180 188 183 182 185
151 255 296 180 184 170 211 213 221 179 214 191 47 308 112 131 123 130 137 154 169 142 207 182 244 210 197 273 150 167 186 178 188 190 183 169 192 218 241 250 204 176 176 166 166 164 164 163 166 158 162 158 161 157 150 157 161 162 163 168 168 171 176 179 171 173 176 175 170 172 173 174 175 176 163 166 167 165 164 170 181 173 175 173 177 175
183 285 307 177 172 153 165 240 241 277 236 188 219 225 95 282 170 38 128 150 149 272 161 212 232 236 208 221 154 184 193 191 189 189 179 180 191 218 230 233 289 195 172 163 164 162 167 162 167 159 166 158 165 159 158 161 159 163 164 166 171 173 179 176 173 174 178 173 176 174 177 177 176 181 174 168 169 157 166 175 172 172 176 174 168 187
42 92 293 159 217 150 153 151 253 226 277 290 264 289 146 160 131 178 176 151 111 165 40 264 67 261 204 205 179 182 195 186 182 186 192 187 190 202 211 217 257 235 177 166 166 162 165 164 162 162 165 164 167 153 163 163 158 163 163 166 170 173 176 174 178 175 181 181 175 172 176 176 177 183 171 169 161 165 171 178 180 180 177 183 175 188
308 41 312 255 106 120 183 155 209 174 195 188 301 325 279 150 166 150 155 171 149 156 176 135 315 259 238 186 175 178 186 192 185 188 190 192 192 191 191 198 213 283 207 173 169 162 166 166 163 164 164 162 166 150 164 162 161 165 164 168 172 174 180 176 183 173 177 178 187 165 177 175 181 176 147 158 159 166 181 186 178 183 174 182 181 181
332 46 269 309 333 240 208 173 186 197 165 180 165 234 234 195 152 123 258 180 211 128 174 163 206 347 6 144 191 178 172 184 191 186 186 188 187 180 186 194 185 246 232 176 171 161 169 166 170 163 163 158 165 154 168 159 161 167 166 171 171 175 182 179 186 172 172 178 190 172 177 177 176 180 157 162 174 176 183 197 185 177 170 177 184 171
189 266 288 331 321 297 309 180 186 217 196 177 160 225 232 243 132 134 74 277 233 345 129 135 101 340 245 273 188 145 153 174 180 183 185 182 188 172 182 199 172 201 244 204 169 168 167 171 176 164 164 161 166 162 167 159 161 167 166 169 172 174 182 180 186 171 168 176 188 173 174 172 172 177 173 178 177 186 190 194 191 169 179 179 178 164
336 332 351 318 303 314 293 196 174 200 247 211 185 202 182 219 188 150 173 185 110 280 77 51 54 251 104 336 353 135 152 161 175 178 171 174 179 179 185 199 200 205 158 331 186 171 170 170 177 162 165 162 164 166 168 162 163 165 166 169 170 175 181 181 177 168 169 174 186 171 173 173 175 175 180 186 180 186 201 198 177 179 176 181 185 178
340 349 40 326 359 322 339 113 154 165 265 267 263 194 208 217 213 182 174 140 160 181 149 122 197 240 255 313 20 104 158 153 169 166 165 166 172 185 186 192 220 52 107 49 230 175 173 171 177 169 163 163 165 165 163 162 165 163 167 168 170 176 179 183 167 167 177 176 181 174 173 180 176 178 182 185 185 190 206 198 161 169 178 190 191 185
76 312 46 51 30 348 340 349 320 347 318 303 266 293 213 246 209 152 196 130 155 207 123 130 159 247 162 180 139 137 81 68 102 139 150 167 172 174 192 189 176 23 90 179 34 90 172 180 167 158 157 154 164 164 160 153 154 156 165 167 169 171 175 181 156 170 172 175 175 179 177 184 183 181 186 196 182 187 196 192 169 166 184 179 188 162
330 321 304 125 158 233 213 222 238 221 267 269 262 245 275 193 280 261 108 127 179 127 99 177 144 159 203 167 165 158 140 133 108 69 67 40 35 166 188 170 165 172 200 205 148 108 53 177 161 160 159 156 154 152 154 149 145 150 156 158 166 168 169 174 155 169 171 171 175 180 183 181 192 191 182 191 201 183 185 185 174 172 188 172 172 180
119 348 298 277 230 225 238 260 271 266 261 165 311 2 348 312 299 283 226 190 150 104 60 5 148 144 190 177 168 156 150 121 113 108 87 93 120 219 267 122 133 138 321 308 265 101 118 199 146 155 152 146 138 146 140 138 143 150 155 154 155 165 159 173 154 167 171 173 173 183 185 183 187 194 176 177 191 213 193 177 175 183 180 181 173 170
23 29 319 326 320 323 317 300 290 300 301 4 16 356 314 286 290 27 34 40 52 127 165 179 160 149 178 179 160 147 127 141 157 149 167 165 167 158 93 97 88 50 285 225 209 147 134 205 148 150 147 131 114 117 128 109 84 70 70 121 116 152 162 161 150 163 171 172 176 183 185 183 181 180 179 174 185 202 197 162 189 185 182 184 177 175
25 279 320 326 313 308 311 293 255 261 314 35 36 18 53 51 41 44 43 27 50 73 144 150 142 103 130 125 93 107 115 125 137 113 124 156 146 126 126 138 153 168 182 354 343 88 153 184 155 151 135 109 95 107 117 117 110 102 95 68 38 26 26 11 142 159 172 176 179 180 182 181 183 182 180 149 179 192 205 166 104 135 194 181 180 182
79 311 332 301 312 299 298 300 315 316 6 53 47 24 50 63 54 37 43 30 45 65 69 71 67 49 7 40 105 112 101 109 100 118 125 99 100 121 127 113 87 140 103 19 332 1 4 117 117 82 68 63 76 84 80 125 131 125 117 115 98 85 94 79 16 325 182 169 152 172 174 174 180 178 171 143 123 105 84 82 93 90 78 189 213 188
356 297 340 313 331 297 295 334 5 341 71 54 38 28 42 57 57 48 48 30 41 54 55 56 51 22 357 13 46 50 50 24 22 69 71 81 96 93 99 118 120 127 132 190 41 40 352 21 40 44 54 80 92 94 98 85 88 129 148 150 151 145 146 140 145 221 299 144 134 125 150 170 171 164 142 101 78 62 74 77 71 61 61 49 33 23
335 347 348 360 1 306 321 1 48 37 38 42 26 37 39 62 74 71 62 49 36 35 53 52 74 350 17 7 40 51 66 80 75 348 17 45 93 99 137 151 88 93 104 98 138 169 114 91 49 29 34 39 56 85 104 90 104 160 190 166 162 161 110 98 89 140 236 186 132 123 110 96 92 100 93 96 96 72 40 26 32 39 53 67 40 34
306 295 244 41 265 287 322 351 50 64 59 47 12 44 58 70 67 66 57 53 45 35 54 49 56 34 38 45 55 56 68 74 61 14 57 53 20 34 33 94 91 69 64 61 66 35 97 113 115 106 82 45 34 40 42 66 112 172 195 180 175 140 125 148 181 190 180 171 154 144 117 113 122 126 137 142 133 119 115 85 58 342 352 37 43 46
2 0 336 314 315 326 345 343 63 77 81 51 25 32 76 82 73 67 58 51 48 38 39 37 35 58 55 70 82 81 69 48 34 46 37 35 54 84 71 72 70 71 70 74 60 55 77 91 82 51 33 41 54 48 43 16 3 68 164 176 192 165 151 167 171 178 179 181 170 137 132 125 119 126 130 115 105 90 77 131 168 196 135 74 62 84
277 342 12 306 253 125 337 350 93 147 270 48 38 17 12 62 79 71 50 35 38 40 33 34 31 61 61 62 79 101 94 76 47 28 27 44 36 39 59 63 67 74 76 63 66 58 66 73 83 61 27 13 41 59 58 8 330 1 43 72 65 48 50 58 99 156 206 185 97 92 113 142 143 139 135 130 131 141 156 190 211 172 140 127 140 164
34 359 0 300 262 211 102 50 106 163 60 9 18 1 352 24 70 79 76 29 20 33 28 40 31 40 51 54 80 105 109 85 56 35 34 46 55 35 39 53 43 50 67 65 70 79 78 81 87 94 84 51 37 40 47 62 9 25 38 33 30 55 50 50 39 24 17 36 14 49 90 98 127 139 135 141 145 144 150 159 158 119 117 121 152 169
159 191 286 64 299 97 57 80 29 40 46 321 350 327 338 6 63 119 96 61 6 42 30 32 41 37 67 69 68 106 112 79 70 58 34 80 103 107 102 97 89 66 54 57 61 73 80 75 68 68 72 70 58 52 47 43 52 58 60 60 57 60 58 60 50 32 22 28 33 24 34 50 60 52 37 73 112 115 103 94 87 84 93 106 118 97
53 165 218 176 289 352 50 103 85 101 170 300 331 320 339 351 349 89 85 46 344 21 38 27 54 35 32 39 17 359 73 68 63 72 154 164 115 108 105 102 113 100 89 84 76 70 75 84 91 85 73 72 72 68 70 69 65 67 63 64 72 71 65 60 57 49 51 51 38 44 47 30 70 73 74 47 33 71 102 96 93 97 139 132 110 102
244 176 163 301 278 255 112 93 118 32 50 337 315 336 342 323 355 14 47 339 324 4 35 27 42 51 18 28 49 50 69 121 150 175 233 131 133 133 123 122 119 117 111 95 85 88 80 78 85 88 87 85 87 92 90 89 87 80 73 68 70 64 56 47 56 65 67 65 60 53 48 37 46 65 45 40 61 38 46 90 104 166 177 153 128 125
17 351 61 240 230 257 134 91 85 103 24 337 332 350 331 296 355 64 149 277 303 20 37 30 32 39 43 41 63 89 50 99 133 150 119 101 107 104 91 82 85 106 118 117 111 110 100 83 72 78 86 86 90 87 89 91 86 84 82 75 68 58 43 27 34 61 70 67 68 60 56 63 44 56 82 89 110 149 145 147 159 174 123 132 121 115
344 55 351 28 18 12 4 89 134 148 79 329 303 13 341 28 61 117 161 258 17 38 46 49 45 44 54 65 79 96 105 93 108 103 90 74 63 64 85 94 93 91 93 101 104 97 100 112 120 119 109 99 90 89 91 91 87 87 83 78 70 62 56 45 30 47 67 69 67 62 56 55 62 57 56 56 59 47 84 130 149 138 125 113 119 117
322 16 15 19 324 44 35 67 44 10 330 341 304 15 7 66 150 23 50 48 62 56 54 51 42 47 74 86 78 85 89 85 89 86 79 65 74 76 73 77 87 93 96 88 74 68 76 76 83 88 87 84 84 84 88 93 94 93 91 87 90 79 57 61 56 43 62 61 52 50 46 49 55 55 57 51 47 41 43 43 54 76 94 110 107 115
311 52 24 39 352 79 68 70 98 70 351 354 42 84 33 63 135 85 68 67 25 31 68 74 44 40 64 81 87 85 94 102 79 79 73 69 77 73 76 89 93 95 91 89 96 101 97 90 81 77 81 85 83 82 71 78 87 92 98 109 127 106 98 74 54 57 63 82 86 75 64 42 34 70 65 57 61 48 37 45 46 36 31 73 109 102
331 95 78 86 332 72 116 105 116 97 64 40 66 96 106 80 55 73 78 80 71 36 36 71 62 41 37 85 101 96 84 69 87 80 89 89 91 96 102 103 102 108 118 120 122 113 99 99 100 100 91 87 92 73 67 67 87 85 80 77 100 109 103 99 86 57 52 67 96 110 126 116 115 111 84 107 122 125 124 118 96 50 11 48 71 83
95 116 104 83 72 86 85 102 110 90 85 72 55 55 69 69 53 53 80 96 82 92 77 84 71 53 2 342 115 126 118 122 118 118 114 112 105 151 170 91 104 127 141 147 148 130 116 113 112 107 102 86 79 74 73 76 88 95 96 80 68 59 79 83 79 57 4 23 71 119 164 197 208 162 151 173 5 37 74 66 71 67 46 35 53 61
43 312 97 96 165 101 86 131 116 119 106 92 83 67 60 56 47 33 41 59 98 84 86 110 135 157 218 235 148 121 128 129 107 112 131 144 156 176 216 155 157 168 168 167 140 120 127 127 125 122 119 115 105 99 94 93 91 111 114 106 102 92 95 90 92 112 103 42 59 38 50 51 231 171 86 87 140 109 76 69 58 64 67 62 60 55
55 62 83 96 100 99 139 101 89 83 72 68 72 72 61 47 43 34 35 30 52 84 92 90 88 105 108 77 88 116 109 84 88 56 30 286 174 189 162 142 157 164 92 98 91 83 76 76 82 93 99 100 102 109 123 128 119 132 100 88 84 82 94 118 129 122 120 91 88 78 50 55 63 68 62 69 66 72 81 67 72 76 60 42 49 81
164 223 89 122 105 104 110 115 107 92 95 95 81 70 65 67 64 48 35 34 29 44 80 78 84 103 95 93 86 93 95 88 89 75 37 359 45 57 61 57 50 60 102 105 93 85 91 85 81 82 85 90 99 113 112 113 113 115 122 131 122 104 93 104 120 116 110 101 97 52 59 86 89 82 69 64 65 56 33 33 64 82 66 21 5 75
75 85 144 116 113 133 166 151 133 124 119 97 100 103 89 73 70 67 55 43 36 31 24 97 113 107 115 122 114 106 100 99 99 81 54 8 28 60 60 66 57 60 64 75 88 92 88 87 95 93 89 82 73 75 83 93 117 115 110 111 113 112 108 115 91 96 93 81 66 38 39 82 107 110 98 87 87 87 70 46 38 17 85 104 22 39
120 188 151 124 140 182 135 105 105 108 99 104 108 110 109 95 78 69 55 59 55 42 37 37 51 87 101 106 119 114 121 121 117 113 96 30 9 32 54 67 73 68 63 71 91 91 100 94 82 69 56 39 34 36 28 40 56 95 119 133 145 131 134 142 105 86 80 80 76 58 56 72 90 109 117 126 119 102 98 85 43 37 32 36 35 43